Wind_Speed
51 53 52 42 46 48 51 51 52 46 44 49 42 44 35 32 30 29 30 31 30 33 36 37 40 41 44 43 40 40 42 42 40 40 41 41 40 41 37 37 40 43 43 41
50 54 53 52 49 50 50 51 50 51 50 50 47 41 36 30 29 28 29 25 30 34 33 35 35 37 40 43 43 42 40 42 43 45 45 46 44 41 38 39 40 43 43 41
49 52 52 52 50 49 51 53 50 53 49 49 52 50 44 36 36 30 35 35 33 33 27 24 28 35 39 42 46 47 47 47 46 45 47 47 47 44 43 42 44 45 47 48
49 45 48 53 51 44 52 44 49 47 47 50 49 57 54 49 45 42 41 32 26 32 34 38 37 40 40 42 48 48 48 48 50 50 50 47 48 49 48 49 51 51 50 51
47 44 43 47 46 48 48 48 49 50 52 55 58 56 64 60 55 52 47 45 45 46 46 47 41 37 40 45 50 52 56 56 56 57 57 55 50 50 53 55 58 57 56 52
52 51 52 51 51 53 52 52 54 58 59 61 58 55 66 64 63 64 64 61 57 52 52 52 47 47 50 52 52 56 59 58 57 58 59 59 56 54 51 57 60 62 61 59
57 55 55 54 55 54 53 55 60 63 64 65 63 65 68 66 63 68 70 69 65 62 60 54 51 53 51 52 50 55 58 62 62 61 60 57 59 58 55 56 60 61 62 62
58 61 59 58 56 58 55 56 58 61 65 70 70 77 71 67 69 71 73 71 67 63 59 61 61 53 52 44 42 44 50 58 64 65 61 58 58 64 62 60 62 64 64 62
67 63 61 59 62 63 63 64 60 63 65 73 76 78 77 74 72 73 72 72 72 61 53 54 54 56 52 51 50 52 50 50 54 58 60 60 59 61 64 67 64 62 62 61
69 70 72 70 68 68 70 72 71 71 71 76 82 81 82 79 78 75 73 72 71 63 57 56 58 60 56 55 56 55 55 53 50 52 56 61 64 65 62 58 58 57 56 58
70 75 75 77 78 73 71 72 73 70 67 66 78 86 79 82 80 80 78 71 69 68 64 61 66 59 57 55 54 50 47 50 51 52 61 65 64 68 62 56 54 58 63 63
51 64 74 77 73 73 75 73 67 65 73 76 71 80 86 81 77 78 79 77 77 78 77 69 68 66 63 64 57 57 51 48 54 55 60 64 61 58 55 53 56 62 61 65
69 74 75 78 80 80 75 71 69 72 75 80 83 84 73 78 81 77 83 87 83 79 76 76 74 75 74 64 59 59 61 67 66 59 62 66 65 56 55 54 60 65 65 71
68 70 70 68 73 77 82 80 76 76 80 79 71 75 76 72 77 84 83 83 81 79 82 79 79 86 90 90 89 86 80 77 72 77 72 68 71 70 67 67 66 67 71 76
66 69 68 70 66 72 78 77 77 75 74 77 80 78 81 78 71 74 74 72 75 76 79 78 82 86 90 92 95 95 93 87 87 86 84 82 79 76 78 78 83 84 88 88
66 69 68 71 69 69 72 71 72 72 78 85 83 81 83 88 90 88 79 74 75 78 85 88 92 82 79 78 84 87 91 89 77 82 88 84 86 81 75 74 76 77 80 86
68 70 72 79 73 76 79 74 74 77 78 82 88 92 96 94 95 95 87 91 98 99 96 97 93 83 78 75 76 76 77 78 74 74 83 86 85 87 87 84 82 78 81 86
74 73 78 84 79 85 81 80 83 85 84 86 89 92 93 93 94 95 96 95 92 89 86 83 78 77 75 75 76 71 73 75 81 90 88 82 78 80 81 80 82 78 78 68
77 77 81 82 84 86 83 80 80 84 87 87 88 90 90 90 89 83 84 87 87 86 85 85 86 88 87 87 83 80 83 86 83 83 82 82 79 85 79 79 79 84 78 62
77 77 79 80 83 87 84 82 81 82 86 83 85 85 85 87 89 84 86 89 90 89 88 86 81 75 78 85 85 88 89 85 84 87 78 74 69 71 74 86 89 92 88 82
71 72 74 74 77 80 76 73 73 75 77 79 81 84 86 88 88 87 82 84 85 85 83 81 79 78 71 75 75 82 77 72 71 78 80 68 67 62 60 60 62 63 67 71
65 66 66 67 70 74 71 72 72 74 76 77 80 80 82 83 83 84 83 82 84 84 83 83 83 84 81 76 79 75 68 73 78 69 71 70 73 71 72 69 71 72 70 64
60 58 63 65 67 65 67 69 70 72 76 77 78 78 80 81 82 83 84 83 84 86 85 85 87 86 90 103 106 99 97 94 88 82 74 73 72 76 79 75 77 71 74 74
55 56 62 63 59 65 67 68 69 70 71 72 72 73 73 75 76 77 78 78 80 81 83 85 87 87 86 91 97 102 102 107 106 100 99 95 97 90 77 76 81 72 69 71
54 58 58 62 62 62 63 63 63 63 61 61 61 63 65 66 68 70 73 74 76 77 78 80 82 84 84 87 91 94 98 99 100 99 103 100 92 88 86 85 87 81 79 82
53 55 59 59 55 55 61 55 55 56 56 57 59 59 60 65 69 74 75 75 76 75 74 76 78 80 80 82 84 86 90 94 95 97 95 92 90 89 86 89 95 87 80 87
Wind_Direction
276 276 278 284 278 280 284 285 286 289 288 279 278 281 283 286 285 293 296 293 293 292 288 283 277 271 273 276 275 276 274 273 271 270 268 267 267 265 266 268 272 273 272 270
275 276 279 277 277 276 279 281 282 284 286 282 281 277 281 282 291 294 293 295 291 295 291 286 281 279 274 275 275 271 269 270 273 271 268 269 268 266 263 262 269 275 271 269
271 272 276 277 275 275 277 277 279 279 281 282 281 277 276 285 288 285 287 292 293 295 295 292 291 280 275 272 271 270 270 272 272 270 272 277 274 268 265 264 262 265 264 264
273 273 272 274 273 274 270 274 274 275 276 278 274 273 280 284 286 283 289 291 286 283 286 287 290 288 285 280 275 273 273 273 274 272 269 269 272 273 271 266 265 267 266 266
276 271 267 266 271 270 272 271 270 271 273 271 271 277 278 282 283 287 288 287 291 294 289 287 292 285 277 277 275 273 277 279 278 277 276 274 269 266 268 268 267 267 266 263
269 267 267 267 265 268 270 270 270 268 270 266 273 281 275 278 287 290 291 295 297 293 291 293 286 278 270 269 267 269 273 272 272 274 273 273 272 271 264 264 265 267 266 263
264 260 260 264 265 266 269 271 271 270 268 270 274 271 266 277 287 285 293 296 298 299 301 295 288 283 279 270 266 264 267 268 268 269 268 268 268 267 261 257 259 260 262 263
262 261 262 263 267 267 268 270 270 278 277 272 270 265 270 274 278 287 291 294 295 297 294 293 292 286 286 278 266 266 263 260 264 265 266 267 266 264 260 255 256 257 258 259
269 264 267 269 271 270 269 272 275 275 274 274 267 265 265 272 277 282 288 288 290 295 293 287 288 285 281 277 279 278 267 261 259 262 265 266 262 262 261 257 253 253 254 255
265 264 263 267 271 272 277 279 279 277 277 277 274 273 266 272 277 280 282 284 284 281 279 278 276 275 273 276 278 278 276 269 260 261 260 257 260 260 257 254 251 247 243 241
274 271 264 269 270 273 277 278 277 277 273 277 283 276 271 274 275 276 280 280 279 279 277 268 267 266 268 270 278 279 272 268 264 256 256 254 252 251 252 248 244 239 239 244
266 269 277 271 276 280 278 281 281 275 276 279 275 271 278 282 281 281 281 278 276 274 276 270 266 264 268 272 271 269 270 268 259 260 246 244 245 245 247 243 238 241 251 250
274 273 277 280 276 280 280 277 276 276 277 278 282 283 285 282 279 277 278 278 276 275 274 272 267 262 264 260 268 263 266 269 265 261 246 249 251 250 242 242 249 251 254 258
270 272 273 275 274 274 273 274 276 277 276 278 272 277 283 279 276 275 277 277 278 277 273 268 265 266 268 267 263 264 265 264 258 261 258 258 254 254 253 250 250 256 259 262
270 270 270 270 266 269 272 274 274 276 276 271 271 268 270 269 268 270 266 266 270 274 267 266 270 268 268 269 267 267 265 263 257 258 260 259 258 254 256 261 263 265 264 261
274 274 273 272 271 273 272 271 273 267 267 267 271 270 267 270 274 270 266 264 267 272 266 269 278 275 270 269 268 268 270 270 269 266 267 263 254 254 256 257 258 259 262 265
275 277 278 275 276 273 272 278 276 274 272 270 268 267 269 274 271 275 271 270 272 277 272 273 276 272 266 260 261 265 268 269 271 272 269 263 257 257 258 258 257 259 258 258
275 275 275 277 275 274 277 275 274 274 274 274 274 275 274 274 274 277 278 277 275 274 272 271 267 262 262 258 257 258 263 268 272 269 270 260 256 257 254 256 255 256 258 261
271 272 274 275 275 276 275 277 278 278 278 278 278 279 279 280 280 280 279 280 279 277 274 272 269 263 256 260 259 259 266 266 263 266 267 261 255 252 256 255 254 256 252 262
272 273 274 276 277 278 278 278 279 279 277 278 277 278 278 279 279 279 277 277 278 278 279 278 276 273 268 264 264 263 261 260 261 259 263 264 263 261 259 258 257 264 266 262
273 273 274 276 277 277 278 279 279 279 281 278 280 281 282 282 282 283 280 278 278 277 276 273 271 267 259 260 257 259 260 263 263 254 258 258 260 264 266 265 266 269 272 265
274 275 277 276 276 279 282 283 281 280 279 281 280 282 281 281 281 281 281 280 279 277 275 272 267 264 258 253 255 256 256 260 267 266 259 259 260 261 265 273 276 276 273 264
276 278 277 277 280 283 282 280 280 280 280 280 281 282 281 282 282 282 281 280 278 277 275 273 270 266 263 261 266 262 260 261 263 266 265 257 262 262 264 267 268 264 262 266
279 278 279 281 282 281 281 281 282 283 285 285 285 285 285 284 284 283 282 281 280 278 278 277 274 269 265 263 263 263 264 266 266 264 263 258 261 266 267 261 263 256 260 262
284 285 287 282 283 285 285 286 288 287 287 287 286 286 286 287 286 286 285 285 285 284 283 282 279 276 273 270 266 263 263 263 262 261 261 258 259 260 259 260 257 251 260 259
290 288 286 291 291 289 290 294 291 291 291 290 289 288 288 290 289 290 290 291 291 289 286 283 281 279 277 274 270 268 266 263 260 258 257 252 250 249 252 253 260 253 255 252
Height
5796 5793 5791 5797 5791 5789 5785 5784 5781 5786 5788 5777 5778 5771 5780 5783 5784 5785 5786 5785 5785 5784 5784 5782 5779 5776 5774 5774 5775 5775 5772 5772 5772 5771 5770 5769 5771 5770 5773 5774 5774 5772 5771 5771
5788 5783 5785 5783 5782 5779 5777 5774 5773 5772 5774 5771 5767 5763 5767 5773 5775 5777 5775 5777 5776 5776 5776 5773 5770 5768 5768 5766 5766 5765 5764 5762 5762 5761 5761 5759 5761 5762 5761 5762 5762 5762 5762 5762
5776 5773 5774 5774 5770 5770 5769 5765 5763 5759 5761 5762 5756 5747 5755 5766 5766 5765 5767 5766 5767 5766 5765 5764 5762 5760 5757 5754 5751 5752 5752 5752 5751 5752 5753 5755 5754 5753 5753 5753 5749 5747 5748 5750
5759 5765 5763 5761 5759 5758 5754 5759 5756 5753 5750 5745 5750 5735 5738 5749 5755 5753 5754 5755 5757 5757 5755 5753 5751 5750 5749 5745 5742 5741 5740 5741 5742 5739 5738 5738 5741 5744 5747 5741 5738 5737 5736 5737
5752 5751 5752 5750 5751 5746 5746 5744 5745 5744 5740 5735 5732 5735 5729 5733 5738 5740 5738 5738 5739 5739 5739 5739 5743 5741 5737 5733 5729 5730 5730 5729 5729 5728 5727 5724 5724 5728 5729 5729 5728 5725 5724 5723
5739 5738 5736 5737 5736 5737 5734 5731 5729 5728 5728 5723 5725 5729 5720 5720 5721 5721 5723 5726 5724 5721 5720 5721 5722 5721 5719 5718 5717 5715 5713 5713 5711 5710 5709 5710 5710 5710 5711 5713 5711 5712 5712 5710
5722 5722 5721 5722 5720 5721 5722 5718 5712 5711 5710 5713 5714 5713 5706 5710 5715 5709 5708 5707 5707 5702 5699 5695 5697 5700 5703 5701 5701 5702 5701 5698 5696 5695 5694 5695 5694 5691 5691 5693 5693 5693 5695 5696
5704 5707 5708 5710 5709 5706 5704 5703 5700 5695 5696 5695 5696 5690 5698 5704 5703 5699 5696 5692 5689 5687 5685 5683 5679 5676 5675 5680 5684 5684 5683 5683 5681 5678 5677 5676 5676 5677 5675 5675 5674 5675 5676 5678
5686 5691 5691 5693 5691 5692 5689 5685 5687 5676 5678 5669 5677 5683 5687 5690 5693 5689 5684 5676 5672 5669 5665 5663 5662 5659 5658 5657 5659 5660 5663 5662 5661 5660 5659 5658 5658 5658 5659 5659 5657 5658 5657 5660
5669 5670 5674 5675 5675 5671 5669 5668 5662 5660 5650 5648 5655 5658 5669 5676 5671 5667 5663 5662 5657 5652 5652 5650 5644 5639 5638 5636 5637 5639 5641 5642 5644 5643 5642 5641 5641 5640 5642 5642 5642 5642 5642 5643
5650 5646 5663 5654 5657 5657 5652 5647 5645 5640 5635 5626 5624 5628 5661 5648 5646 5647 5645 5638 5631 5632 5633 5628 5622 5621 5623 5625 5624 5623 5623 5624 5625 5625 5627 5626 5623 5623 5623 5624 5626 5627 5626 5628
5638 5629 5627 5634 5639 5635 5629 5629 5627 5618 5614 5609 5601 5594 5631 5629 5626 5622 5619 5612 5607 5605 5608 5611 5612 5614 5609 5608 5609 5606 5605 5609 5609 5606 5604 5604 5605 5606 5609 5611 5611 5611 5613 5614
5618 5610 5605 5613 5614 5615 5605 5607 5605 5602 5595 5587 5580 5577 5598 5601 5599 5599 5591 5587 5588 5589 5593 5593 5594 5592 5595 5593 5590 5590 5588 5589 5590 5591 5591 5595 5596 5594 5592 5594 5597 5595 5593 5596
5600 5596 5593 5592 5595 5596 5588 5588 5593 5586 5572 5567 5568 5562 5570 5567 5566 5578 5576 5568 5568 5569 5568 5568 5571 5569 5568 5569 5571 5574 5570 5567 5569 5571 5573 5576 5577 5577 5578 5576 5575 5577 5576 5577
5582 5577 5577 5576 5577 5575 5566 5568 5572 5566 5563 5551 5552 5546 5541 5543 5544 5545 5552 5551 5547 5545 5545 5544 5544 5546 5544 5542 5542 5544 5545 5544 5546 5548 5550 5554 5553 5554 5557 5558 5558 5559 5559 5556
5562 5556 5554 5554 5564 5549 5545 5553 5552 5551 5546 5535 5526 5524 5517 5519 5520 5519 5522 5525 5527 5526 5523 5521 5520 5520 5518 5515 5515 5516 5516 5516 5517 5521 5522 5527 5530 5531 5534 5535 5535 5537 5538 5535
5544 5539 5534 5524 5541 5526 5521 5539 5532 5526 5521 5515 5511 5505 5499 5496 5493 5491 5492 5495 5496 5497 5496 5496 5495 5494 5491 5491 5492 5493 5492 5489 5490 5494 5494 5497 5502 5507 5510 5511 5513 5514 5514 5513
5523 5523 5514 5503 5512 5497 5514 5511 5506 5501 5500 5497 5486 5477 5474 5473 5474 5471 5466 5467 5469 5468 5468 5470 5470 5471 5469 5467 5468 5469 5470 5470 5469 5467 5470 5472 5477 5481 5484 5486 5488 5489 5490 5489
5506 5503 5494 5486 5482 5479 5490 5492 5484 5477 5474 5471 5462 5455 5450 5447 5449 5454 5443 5440 5440 5439 5441 5441 5441 5443 5443 5441 5441 5443 5446 5447 5446 5444 5444 5447 5451 5456 5457 5462 5464 5464 5466 5468
5488 5482 5473 5470 5461 5453 5464 5466 5464 5454 5445 5447 5438 5435 5430 5423 5418 5432 5423 5417 5413 5411 5409 5409 5410 5412 5411 5412 5412 5414 5417 5417 5419 5421 5423 5425 5427 5431 5436 5440 5443 5444 5444 5445
5469 5459 5453 5450 5440 5437 5444 5445 5440 5433 5430 5422 5417 5411 5404 5397 5395 5395 5402 5394 5388 5387 5386 5384 5386 5388 5386 5385 5382 5385 5389 5390 5392 5395 5398 5402 5406 5406 5409 5414 5418 5422 5424 5426
5444 5442 5441 5434 5425 5420 5427 5424 5418 5411 5403 5402 5397 5393 5384 5380 5377 5370 5369 5370 5362 5360 5359 5358 5358 5362 5361 5358 5356 5358 5357 5359 5363 5368 5373 5376 5380 5386 5389 5392 5395 5397 5402 5405
5425 5429 5418 5416 5413 5413 5408 5398 5399 5389 5382 5382 5376 5373 5361 5357 5354 5348 5343 5343 5340 5332 5331 5329 5328 5332 5335 5330 5328 5330 5331 5330 5335 5340 5344 5352 5358 5362 5367 5371 5377 5380 5381 5385
5414 5411 5401 5399 5406 5390 5385 5384 5375 5369 5365 5362 5357 5348 5340 5334 5331 5323 5318 5315 5311 5308 5303 5298 5296 5298 5302 5300 5299 5298 5302 5300 5304 5311 5318 5323 5329 5337 5342 5347 5355 5358 5360 5363
5400 5393 5389 5378 5381 5370 5368 5365 5357 5351 5347 5340 5335 5328 5320 5313 5310 5300 5297 5293 5287 5283 5279 5271 5267 5266 5269 5267 5266 5266 5266 5266 5271 5276 5285 5292 5300 5307 5316 5321 5330 5336 5340 5346
5380 5376 5365 5360 5361 5351 5349 5347 5338 5334 5329 5323 5316 5312 5306 5297 5290 5282 5278 5273 5264 5259 5254 5246 5241 5236 5237 5234 5235 5234 5233 5234 5238 5244 5252 5258 5267 5277 5286 5293 5302 5308 5315 5320